Theta_e
309 314 316 321 319 317 319 320 327 330 333 337 342 343 344 346 351 353 335 331 333 334 337 338 339 340 340 340 339 339 339 339 339 338 337 341 342 343 343 342 339 337 338 340 341 342 342 343 339
310 313 319 317 320 321 320 326 328 330 332 324 326 328 331 335 336 335 331 325 323 318 321 326 334 337 339 340 341 340 339 339 338 339 339 337 340 342 342 342 341 339 338 339 340 341 341 340 341
312 315 315 318 319 322 320 326 325 324 324 325 318 319 323 327 327 326 326 321 319 317 311 309 313 317 321 324 329 335 339 340 340 338 338 339 338 338 340 341 341 340 339 339 339 338 339 339 339
314 313 314 318 321 320 320 322 323 323 323 319 319 321 322 321 321 320 320 320 318 316 315 312 310 309 308 308 308 311 318 327 335 338 339 338 338 340 337 338 339 340 341 340 339 338 337 338 340
313 309 316 319 320 319 318 320 322 322 319 320 319 319 321 318 318 317 317 317 315 315 314 314 312 312 311 309 307 307 307 308 309 313 325 335 336 337 338 338 336 337 338 339 339 339 338 338 339
308 310 313 314 317 317 317 317 321 321 320 320 319 318 317 317 316 316 315 313 312 311 310 310 310 310 311 311 309 309 310 310 311 311 309 311 327 332 331 335 337 338 337 336 336 338 338 337 338
310 310 312 314 318 317 317 317 320 318 318 318 318 319 314 315 316 315 314 313 312 310 309 309 309 309 310 310 310 312 311 313 312 312 312 311 312 319 319 325 328 334 336 337 337 335 336 337 337
310 309 312 312 316 315 316 316 314 317 317 318 318 318 315 314 316 315 314 312 311 310 310 309 308 308 310 309 311 311 310 311 311 311 312 311 310 310 311 313 316 317 318 324 337 338 336 335 335
314 310 311 313 313 314 312 314 314 315 316 316 316 317 315 315 315 315 314 312 311 310 309 308 308 307 308 308 310 309 309 309 309 311 311 310 310 310 311 313 314 315 318 322 331 336 337 338 335
312 311 313 312 311 312 314 314 314 314 315 313 314 314 314 314 314 312 311 310 310 309 308 308 307 306 306 308 308 307 308 308 309 309 308 308 309 309 309 309 310 312 315 317 319 325 331 336 337
314 313 313 312 313 311 312 313 313 312 316 315 314 313 313 312 311 310 310 309 309 308 308 306 306 305 306 306 306 306 306 307 307 306 307 308 307 307 307 307 308 308 310 313 315 317 320 332 336
314 314 313 314 311 312 312 313 315 316 315 314 313 313 312 309 309 309 308 308 307 306 306 305 305 305 305 305 305 306 306 306 305 306 305 306 307 306 306 306 307 307 308 308 310 312 314 317 322
313 313 313 313 313 313 313 312 315 314 313 311 312 311 309 308 308 308 308 307 306 306 305 305 305 305 304 304 304 304 304 304 303 304 305 304 303 304 305 305 306 305 306 307 308 309 311 313 316
314 313 312 312 312 311 311 311 312 313 310 310 311 308 307 307 307 307 306 306 306 305 305 305 305 304 303 303 303 303 304 302 303 302 302 302 303 302 301 302 303 303 305 305 306 307 308 310 312
316 314 313 313 312 312 311 311 311 312 310 310 309 307 307 307 306 305 306 305 305 305 305 305 304 303 303 303 302 302 302 302 301 300 300 300 300 299 298 298 298 299 299 300 301 303 305 308 310
315 315 314 314 313 310 310 312 312 310 310 309 308 308 307 306 306 306 306 306 305 305 305 304 303 302 302 302 301 302 301 300 300 300 299 298 297 297 297 296 296 296 295 296 298 299 301 304 307
315 315 315 315 311 310 310 311 311 309 310 309 307 307 307 305 305 306 305 305 305 304 304 303 302 302 301 301 301 300 300 299 299 298 297 295 295 294 293 294 294 294 295 296 297 298 299 300 302
316 317 314 313 313 311 309 310 312 310 309 309 306 306 306 305 304 305 305 305 304 303 302 302 301 301 301 300 300 299 298 297 297 296 294 293 292 292 292 293 293 294 295 296 297 297 298 299 300
315 314 314 311 311 313 313 314 311 309 309 308 307 307 306 306 305 305 305 304 303 302 301 301 300 301 300 299 298 297 296 296 295 293 292 291 291 291 291 292 292 292 293 294 296 298 299 299 299
314 313 311 311 312 312 311 312 311 310 311 309 309 307 307 305 304 304 304 304 302 301 301 300 299 300 299 298 297 295 295 294 294 292 291 290 290 290 291 290 290 290 290 292 293 294 298 299 299
314 312 312 313 312 312 310 308 308 309 311 311 309 308 307 306 304 304 303 302 301 300 299 299 298 299 298 297 296 294 293 293 292 291 290 289 289 289 290 289 288 289 289 291 292 293 294 297 299
314 313 314 314 313 312 310 310 310 312 312 311 309 307 305 305 303 303 301 300 299 298 298 297 297 297 297 296 294 293 292 292 291 290 289 289 288 288 288 288 288 288 289 290 291 292 293 295 296
313 312 311 312 310 309 310 310 310 311 313 311 309 308 305 303 302 300 300 298 296 296 296 295 295 294 295 294 293 292 290 290 290 289 288 288 287 287 287 287 287 287 288 289 290 291 292 294 296
311 311 311 310 309 311 313 313 316 316 315 312 310 308 306 303 301 300 300 297 294 294 294 294 293 292 292 293 292 290 289 289 289 288 287 287 287 287 286 286 285 286 286 287 288 289 291 293 295
310 311 313 314 314 314 314 314 319 317 315 313 311 307 304 303 301 297 298 295 293 291 292 292 291 290 290 291 290 289 288 288 287 287 286 286 286 286 285 285 284 285 285 286 287 289 291 293 296
311 313 315 313 314 312 312 312 318 314 314 312 309 306 304 303 299 296 298 293 291 288 290 290 289 289 289 289 288 287 286 286 285 285 285 285 285 284 283 284 284 284 284 285 286 288 288 290 292
309 310 310 312 313 312 312 313 315 313 314 312 310 307 304 302 298 296 297 292 290 287 289 288 287 287 287 287 287 286 285 284 284 284 283 283 283 283 282 283 283 283 283 283 285 286 286 287 289
309 309 311 315 312 314 312 311 316 314 313 312 307 307 305 302 297 292 295 292 290 288 286 287 285 285 286 286 285 284 283 282 282 282 282 282 282 282 282 282 282 282 282 282 282 283 284 284 284
310 310 310 310 310 312 311 310 314 312 312 310 305 303 303 300 293 292 293 292 291 289 287 285 285 285 285 285 284 284 283 283 282 281 281 281 281 280 281 281 281 281 281 281 280 281 281 282 282
309 309 310 314 312 312 312 309 314 311 311 314 309 302 302 299 293 290 291 291 290 289 289 287 287 287 286 285 284 284 284 284 283 282 281 280 280 280 279 280 280 281 280 280 279 279 280 280 280
Wind_Speed
20 19 17 3 3 4 5 6 3 7 7 13 18 25 22 13 5 8 2 13 7 11 11 12 12 12 12 13 13 14 13 12 11 10 9 8 7 6 7 7 7 6 7 8 7 7 8 9 10
19 21 4 1 3 2 6 8 13 8 10 15 17 15 12 10 10 7 4 13 14 16 13 12 13 14 14 14 15 14 13 13 12 11 9 7 6 6 7 8 8 8 9 10 10 11 11 11 13
22 12 2 3 3 3 3 8 9 6 8 5 7 10 6 3 11 8 13 18 16 15 17 17 16 16 16 17 17 17 16 15 14 14 13 12 10 8 7 7 8 10 11 13 13 13 13 14 14
8 2 4 1 6 4 6 6 9 5 5 12 12 11 6 13 5 14 18 13 15 15 15 18 20 19 20 19 19 19 17 16 15 14 14 13 13 11 9 9 10 11 11 13 15 15 15 16 16
6 1 1 4 6 3 5 4 8 7 7 7 3 5 7 17 21 15 14 12 13 12 12 15 18 20 21 22 18 17 17 16 16 14 14 14 14 14 12 11 10 12 14 15 15 17 18 18 18
3 2 4 5 8 4 5 5 9 16 12 7 11 8 5 21 20 16 13 14 14 17 17 18 19 20 20 20 19 17 18 18 18 17 15 14 13 12 14 14 13 12 14 17 18 19 19 19 20
6 2 6 8 7 4 4 4 9 15 13 9 10 5 7 17 22 15 15 17 18 19 20 20 19 18 18 17 18 19 18 18 16 17 17 16 11 12 13 12 14 14 16 18 18 20 22 21 22
2 3 6 7 2 2 4 4 7 9 6 4 2 6 6 15 22 17 18 20 21 20 20 21 20 19 16 18 19 17 16 16 18 18 19 20 17 16 16 14 15 17 18 19 19 20 21 23 23
0 3 4 6 7 2 5 4 5 8 9 7 6 6 16 25 23 23 19 21 22 21 21 22 22 21 19 18 18 18 18 19 19 18 21 22 21 20 18 19 18 16 17 17 19 20 23 24 25
3 4 3 4 5 4 4 5 5 6 9 7 10 12 19 16 15 17 19 20 22 21 19 19 20 21 21 19 19 19 19 20 18 19 22 23 24 22 25 22 22 19 18 17 17 18 22 24 28
2 2 1 3 5 7 5 2 4 7 6 3 13 8 8 14 18 20 22 22 20 17 15 18 19 20 21 21 22 23 21 20 20 22 21 22 26 28 27 28 28 27 25 23 23 22 22 25 27
2 2 5 3 6 1 5 5 6 7 5 14 12 10 8 9 13 18 21 20 18 17 17 17 19 20 22 20 22 22 23 23 24 23 23 24 25 26 28 28 28 29 29 29 27 28 25 23 23
3 4 5 3 4 4 2 4 7 10 11 10 11 10 10 9 16 21 21 19 16 17 17 17 19 22 23 23 23 23 23 24 25 24 23 25 26 26 25 25 26 27 30 29 30 29 29 29 29
5 6 9 7 8 5 7 4 9 3 9 10 10 10 9 11 16 20 19 16 14 14 15 14 17 21 21 23 23 24 23 25 24 24 26 25 24 25 26 26 25 24 23 25 28 29 30 33 31
5 7 9 11 8 5 7 3 6 15 12 11 10 10 10 12 23 18 13 13 11 14 13 15 16 20 21 22 21 21 22 22 24 26 24 24 25 27 29 28 27 28 31 33 33 31 28 28 30
4 3 3 9 7 5 8 5 3 15 16 11 10 11 11 12 17 13 10 12 13 13 13 14 16 20 20 20 20 20 21 23 24 23 23 22 27 27 25 26 28 28 30 29 29 29 28 27 26
3 4 8 6 5 6 4 5 8 9 12 13 11 10 11 10 14 14 16 13 13 13 12 13 15 18 18 17 19 20 19 22 21 23 23 30 26 27 29 27 27 28 26 24 24 23 23 27 28
7 4 5 2 3 4 7 7 12 11 10 12 11 11 12 10 8 18 15 11 11 11 12 13 15 17 16 20 19 19 23 22 22 22 28 27 29 28 29 25 24 26 24 23 22 23 23 24 26
4 6 5 9 7 5 6 3 11 13 8 9 11 14 9 14 16 18 17 12 11 12 12 14 15 14 18 20 21 24 24 23 22 26 26 28 28 27 25 23 25 25 24 25 25 24 22 22 21
5 6 9 7 11 5 5 5 6 10 14 9 17 13 15 13 10 16 17 14 13 12 12 13 14 13 18 16 19 17 19 18 19 23 24 28 29 29 26 26 26 26 25 23 25 25 24 19 18
7 6 7 10 5 3 6 6 8 9 13 9 9 12 14 15 12 10 16 14 14 13 12 14 14 14 17 17 20 21 19 19 23 25 26 28 28 28 24 25 29 28 24 22 22 22 22 22 19
6 5 4 7 6 3 6 8 7 4 8 15 14 14 12 12 11 10 15 16 16 15 13 13 14 15 17 18 19 19 20 17 21 22 24 25 25 29 25 26 27 27 26 23 23 20 22 21 20
4 4 4 4 7 5 2 5 4 5 10 12 12 13 10 9 9 9 14 19 17 12 12 12 13 16 16 17 17 18 18 16 17 21 23 26 26 25 25 28 27 27 27 25 24 24 21 22 21
5 5 6 4 3 4 13 6 4 4 14 11 10 13 13 10 10 14 14 18 17 11 10 12 13 16 15 16 15 17 17 17 18 20 22 25 25 25 26 28 29 27 27 25 25 24 21 21 23
3 2 2 3 1 7 1 2 2 6 7 15 15 12 10 9 9 8 9 14 14 11 10 11 12 15 14 16 15 16 16 16 16 19 23 24 25 25 28 30 32 30 29 27 25 23 21 19 22
6 7 4 4 1 5 3 2 2 8 14 14 12 10 10 8 9 7 8 14 12 9 9 10 9 11 12 15 15 16 17 16 16 16 20 21 22 25 28 29 32 30 29 27 25 21 24 24 23
0 2 2 1 3 2 3 3 4 8 10 10 9 9 8 8 9 8 9 14 11 8 8 9 8 10 10 13 12 14 16 18 17 18 19 20 22 25 27 31 33 33 31 31 28 27 31 28 27
3 2 2 2 2 4 3 3 4 5 8 8 5 9 8 7 8 6 8 12 10 8 7 6 8 10 11 12 14 14 17 19 20 19 20 21 23 25 26 32 31 35 33 31 31 29 32 32 33
3 3 5 5 4 3 2 5 5 8 8 10 9 7 7 8 8 8 10 11 10 8 5 6 7 9 13 12 13 15 17 18 24 26 22 22 23 25 27 29 29 35 34 32 31 30 34 35 35
8 9 6 3 3 2 4 6 3 9 9 8 11 11 12 10 7 7 13 11 10 7 4 5 5 6 8 10 12 16 17 19 22 25 24 25 25 26 29 31 32 29 33 32 32 31 34 36 37
Wind_Direction
318 323 315 286 46 68 283 269 11 23 61 76 84 89 83 42 27 104 71 110 80 71 70 69 73 68 63 56 50 46 42 38 33 31 25 17 1 339 328 313 301 284 281 273 272 270 274 273 274
314 322 306 265 101 30 296 79 62 57 100 103 80 98 66 73 81 95 81 96 90 79 75 74 74 66 61 56 51 45 39 29 23 20 15 6 359 345 326 313 297 287 279 279 271 276 277 279 274
308 289 54 155 170 206 214 92 83 30 25 62 106 47 68 54 72 110 106 103 79 65 54 56 64 63 59 54 49 43 37 29 20 12 4 357 345 337 324 310 298 292 286 281 280 281 280 280 275
309 50 326 84 245 271 114 134 123 103 73 61 118 77 79 35 81 104 103 111 96 68 52 46 53 52 50 46 44 41 36 30 24 14 6 357 351 342 325 311 300 290 286 281 281 279 280 281 276
289 7 264 266 285 189 42 44 133 136 98 69 73 70 86 76 92 93 89 90 87 81 67 52 48 50 43 37 36 35 31 26 21 15 9 3 359 349 340 319 301 291 287 282 277 277 280 280 277
334 117 352 299 310 124 59 359 85 94 96 111 89 103 99 121 107 105 99 84 70 62 53 47 43 49 45 31 31 33 32 27 20 10 1 5 8 358 348 342 324 306 294 288 283 276 275 274 273
182 52 254 281 230 88 124 50 60 74 61 28 136 82 135 120 127 123 106 85 62 48 43 39 39 46 46 32 33 34 30 25 14 12 353 359 346 344 346 346 340 325 309 293 284 280 277 274 273
93 99 310 323 154 100 64 60 64 74 56 123 109 143 168 145 135 127 107 86 66 46 34 30 29 33 36 29 36 26 24 15 10 4 359 353 345 342 340 339 336 332 329 317 290 278 277 275 272
90 41 330 5 10 168 86 84 48 71 85 54 36 75 123 140 143 127 106 80 66 51 31 21 21 23 26 31 26 15 15 9 14 359 354 351 348 344 335 333 331 329 329 330 320 298 279 274 272
93 90 331 21 29 356 73 74 121 97 105 84 89 92 122 146 156 112 84 75 67 54 32 18 16 18 20 27 14 14 11 16 9 355 354 353 348 344 339 330 328 319 312 312 320 315 306 284 274
351 136 80 53 38 16 347 57 142 118 31 174 139 135 129 104 84 86 80 73 71 59 29 17 14 17 21 20 15 16 21 17 0 5 3 353 344 342 343 336 333 328 323 314 310 313 322 309 294
19 262 135 189 124 37 319 333 68 63 114 113 121 121 114 90 76 74 76 66 62 50 30 20 17 19 20 22 19 22 19 9 10 7 2 358 355 349 345 341 337 331 328 323 317 316 311 311 308
298 321 350 290 181 166 265 320 131 115 113 102 111 105 102 101 94 77 74 63 55 49 29 29 18 15 16 20 20 21 17 9 5 11 5 358 353 350 348 345 342 337 332 333 329 317 308 304 297
338 328 305 299 274 215 184 218 115 178 127 124 125 115 98 92 91 72 59 57 51 52 33 30 22 13 19 23 20 17 15 5 10 4 357 359 353 351 343 340 345 343 335 331 332 326 319 310 303
302 315 301 268 252 220 103 301 218 161 147 149 144 125 109 95 81 76 65 59 60 52 39 32 22 13 22 22 17 17 11 10 3 359 0 354 350 351 342 340 338 332 321 314 315 317 323 322 314
260 263 275 267 221 198 107 250 120 150 150 158 140 126 113 101 98 95 88 67 76 54 38 29 22 17 25 21 12 18 12 5 8 5 359 358 353 352 349 343 336 330 328 324 315 316 318 319 320
272 234 243 322 102 126 135 235 194 174 162 161 153 139 129 118 111 104 87 68 68 53 39 34 26 20 24 13 20 13 8 16 5 3 356 348 352 346 347 343 336 331 327 322 319 315 310 315 314
299 321 335 97 267 154 203 254 171 183 173 171 153 141 140 126 132 109 100 82 72 58 41 34 26 21 21 13 16 9 16 12 11 1 357 4 353 352 349 345 338 330 321 317 316 309 308 307 307
324 309 298 301 286 208 234 209 188 196 179 174 142 140 138 130 129 114 108 93 77 56 40 35 27 28 21 24 20 10 10 8 8 3 5 358 1 355 351 349 344 337 331 326 320 307 303 305 309
296 296 296 294 277 320 337 275 256 183 189 180 151 151 131 132 127 121 111 99 86 66 47 38 27 38 31 28 15 17 8 11 4 4 4 4 359 360 352 349 341 335 327 321 320 316 312 298 298
270 252 264 261 313 349 348 307 287 272 176 135 130 130 129 137 133 122 111 102 87 71 52 37 23 38 28 19 10 13 14 16 7 5 3 1 358 354 346 347 337 331 327 317 313 311 306 309 301
270 271 20 339 9 273 29 293 255 303 96 107 104 104 113 112 115 112 109 100 91 71 55 39 32 42 36 20 22 26 20 7 5 1 360 358 358 355 345 344 339 334 329 321 318 309 301 297 292
245 65 18 334 306 321 277 268 289 198 128 127 124 125 124 121 118 106 103 104 88 75 59 40 43 45 37 27 23 25 24 10 5 5 2 0 355 349 346 349 345 343 339 328 323 314 301 290 280
45 353 336 279 239 289 252 215 333 331 140 135 137 127 125 121 116 111 111 103 86 69 66 39 44 44 38 33 24 22 25 11 10 6 7 1 351 346 349 355 354 349 345 337 330 320 305 293 282
143 113 320 318 28 230 43 319 117 18 142 149 142 136 130 130 119 112 105 103 87 69 58 39 43 40 35 39 31 26 26 18 15 10 10 357 350 348 354 1 359 354 352 350 345 335 332 317 306
191 191 172 237 184 274 39 251 153 57 69 88 100 115 122 118 116 120 118 115 98 78 70 49 47 47 38 40 42 31 31 29 20 17 14 2 353 350 6 9 5 1 360 360 0 359 357 351 346
127 209 213 109 3 50 253 117 90 101 94 96 108 125 150 148 147 142 126 126 105 93 83 62 55 61 53 45 37 39 34 28 23 29 19 9 5 356 15 22 12 8 5 11 12 13 10 8 6
144 337 12 351 145 244 258 278 211 147 150 146 164 189 192 150 123 133 126 127 111 104 91 91 70 74 67 58 46 44 42 42 40 38 29 23 17 7 21 25 19 13 10 11 20 20 17 17 11
262 213 218 178 159 188 240 270 194 169 185 192 203 206 186 155 160 154 134 121 128 116 112 105 94 83 71 69 53 52 49 49 46 43 37 31 29 19 30 33 21 20 15 13 21 27 25 21 13
214 243 192 133 251 203 159 255 186 169 189 191 211 203 209 159 129 142 148 138 132 141 162 136 107 103 88 75 68 59 55 52 51 47 42 38 34 32 35 38 33 26 20 17 20 26 33 31 19